Regional Weather Roundup
Issued by NWS

Home | Current Version | Previous Version | Text Only | Print | Product List | Glossary On
Versions: 1 2 3 4 5 6 7 8 9 10 11 12 13 14 15 16 17 18 19 20 21 22 23 24 25 26 27 28 29 30 31 32 33 34 35 36 37 38 39 40 41 42 43 44 45 46 47 48 49 50
000
ASUS44 KMEG 020010
RWRTN
TENNESSEE HOURLY STATE WEATHER ROUNDUP
NATIONAL WEATHER SERVICE MEMPHIS TN
600 PM CST SUN FEB 01 2015

TNZ002-004-019-021-049-052-054-088>092-020100-
WEST TENNESSEE

CITY           SKY/WX    TMP DP  RH WIND       PRES   REMARKS
MEMPHIS INTL   CLOUDY    51  46  83 W8G22     29.77R
NWS MEMPHIS      N/A     51 N/A N/A MISG        N/A
JACKSON        CLOUDY    52  48  86 W12       29.72R
DYERSBURG      CLOUDY    50  37  62 W14       29.75R
UNION CITY     CLOUDY    48  46  93 W12       29.70R
PARIS          CLOUDY    48  46  93 W7        29.69R
LEXINGTON      CLOUDY    52  52 100 W10       29.69R
SAVANNAH       CLOUDY    55  55 100 W8        29.72R
$$

TNZ008-025-027-028-033-062-065-066-020100-
NORTH MIDDLE TENNESSEE

CITY           SKY/WX    TMP DP  RH WIND       PRES   REMARKS
NASHVILLE      RAIN      55  53  93 SW13      29.66S FOG
CLARKSVILLE    LGT RAIN  54  52  93 W16G25    29.65R
SMYRNA         LGT RAIN  55  54  94 SW10      29.67F
COOKEVILLE     CLOUDY    52  50  93 S10       29.68F
CROSSVILLE     LGT RAIN  48  45  89 S12G22    29.72F
$$

TNZ061-075-076-078-094-096-097-020100-
SOUTH MIDDLE TENNESSEE

CITY           SKY/WX    TMP DP  RH WIND       PRES   REMARKS
FAYETTEVILLE   CLOUDY    54  54 100 MISG      29.70F
TULLAHOMA      CLOUDY    54  52  94 S13       29.70F
WINCHESTER     CLOUDY    54  52  94 S14       29.72F
MCMINNVILLE    CLOUDY    54  54 100 SW10      29.69F
COLUMBIA       CLOUDY   N/A N/A N/A SW13      29.65F
SHELBYVILLE    CLOUDY    55  55 100 SW9       29.71S
$$

TNZ017-018-042-046-047-020100-
NORTHEAST TENNESSEE

CITY           SKY/WX    TMP DP  RH WIND       PRES   REMARKS
TRI CITIES     LGT RAIN  49  43  80 SE5       29.80F
ELIZABETHTON   DRIZZLE   45  41  87 E8        29.83F
$$

TNZ012-013-036-069-073-074-020100-
CENTRAL EAST TENNESSEE

CITY           SKY/WX    TMP DP  RH WIND       PRES   REMARKS
KNOXVILLE      LGT RAIN  44  42  93 CALM      29.76F
OAK RIDGE      LGT RAIN  44  43  96 SW3       29.78F FOG
GATLINBURG     CLOUDY    46  43  87 CALM      29.75F
MORRISTOWN     CLOUDY    43  39  87 N3        29.78F
$$

TNZ083-085-099-020100-
SOUTHEAST TENNESSEE

CITY           SKY/WX    TMP DP  RH WIND       PRES   REMARKS
CHATTANOOGA    CLOUDY    53  50  89 S10       29.81F FOG
$$

SKY/WX REPORTED AS FAIR MEANS FEW OR NO CLOUDS BELOW
12 THOUSAND FEET.




USA.gov is the U.S. government's official web portal to all federal, state and local government web resources and services.